Home   Weather   Río Grande   Past weeks

Flag for Argentina Past Weather in Río Grande, Tierra del Fuego, Argentina — Yesterday and Last 2 Weeks

Now
48 °F

Passing clouds.


Feels Like: 44 °F
Forecast: 46 / 49 °F
Wind: 10 mph from North

Location: Rio Grande B. A.

Current Time: May 1, 2017 at 12:01:47 am

Latest Report: Apr 30, 2017 at 10:00 pm


Visibility: N/A

Pressure: 29.59 "Hg

Humidity: 87%

Dew Point: 45 °F

Location of Río GrandeLocation

Past Weather in Río Grande — Graph

°F

Río Grande Temperature Yesterday

Maximum temperature yesterday: 48 °F (at 10:00 pm)
Minimum temperature yesterday: 30 °F (at 7:00 am)
Average temperature yesterday: 40 °F

High & Low Weather Summary for the Past Weeks

 TemperatureHumidityPressure
High57 °F (Apr 19, 1:00 pm)100% (Apr 16, 12:00 am)30.21 "Hg (Apr 16, 12:00 am)
Low30 °F (Apr 17, 8:00 am)63% (Apr 19, 1:00 pm)29.12 "Hg (Apr 18, 7:00 pm)
Average43 °F92%29.54 "Hg
* Reported Apr 16 12:00 am — Apr 30 10:00 pm, Río Grande, Weather by CustomWeather, © 2017

Note: Actual official high and low records may vary slightly from our data, if they occured in-between our weather recording intervals... More about our weather records

Advertising

Río Grande Weather History for the Previous 24 Hours

Scroll right to see more
 ConditionsComfort  
Time TempWeatherWind HumidityBarometerVisibility
10:00 pm
Sun, Apr 30
48 °FPassing clouds.10 mph87%29.59 "HgN/A
9:00 pm46 °FPassing clouds.6 mph93%29.62 "HgN/A
8:00 pm46 °FPassing clouds.5 mph93%29.62 "HgN/A
7:00 pm45 °FPassing clouds.6 mph93%29.65 "HgN/A
6:00 pm46 °FPartly sunny.10 mph82%29.65 "HgN/A
5:00 pm45 °FPassing clouds.10 mph87%29.65 "HgN/A
4:00 pm46 °FSunny.13 mph82%29.65 "Hg10 mi
3:00 pm46 °FSunny.13 mph71%29.65 "Hg10 mi
2:00 pm45 °FSunny.12 mph81%29.65 "Hg10 mi
12:00 pm43 °FSunny.12 mph87%29.65 "Hg10 mi
11:00 am37 °FSunny.6 mph100%29.65 "Hg10 mi
9:00 am30 °FSunny.5 mph93%29.65 "Hg10 mi
8:00 am32 °FClear.No wind93%29.62 "Hg10 mi
7:00 am30 °FClear.6 mph100%29.62 "Hg10 mi
6:00 am32 °FPassing clouds.2 mph93%29.59 "HgN/A
2:00 am32 °FPassing clouds.5 mph100%29.53 "HgN/A
1:00 am34 °FPassing clouds.2 mph93%29.50 "HgN/A
12:00 am32 °FPassing clouds.1 mph100%29.53 "HgN/A
Weather by CustomWeather, © 2017

See weather overviewHow to use our weather pages